[[{"header":{"parameterUnit":"m.s-1","parameterCategory":1,"la1":30.2991,"la2":30.254,"lo1":-89.0895,"lo2":-89.0444,"dy":0.0017,"dx":0.0017,"nx":28,"ny":28,"refTime":"2025-03-08T09:00:00:Z","depth":0,"parameterNumber":2,"parameterNumberName":"U-component_of_WINDS"},"data":[0,0,0,0,0,0,0,0,0,0,0,0,0,0,0,0,0,0,0,0,0,0,0,0,0,0,0,0,0,0,0,0,0,0,0,0,0,0,0,0,0,0,0,0,0,0,0,0,0,0,0,0,0,0,0,0,0,0,-1.5659,-1.5659,0,-1.5677,-1.5678,-1.5678,-1.563,-1.5628,-1.5627,-1.5625,-1.5646,-1.5648,-1.565,0,0,0,0,0,0,0,0,0,0,0,0,0,-1.5584,-1.5585,-1.5659,-1.5659,-1.5659,-1.5677,-1.5678,-1.5678,-1.563,-1.5628,-1.5626,-1.5625,-1.5646,-1.5648,-1.565,0,0,0,0,0,0,0,0,0,0,0,0,0,-1.5611,-1.5586,-1.5659,-1.5638,-1.5636,-1.5677,-1.5678,-1.5678,-1.563,-1.5628,-1.5626,-1.5624,-1.5645,-1.5648,-1.5651,-1.5714,0,0,-1.566,-1.5661,0,0,0,0,0,0,0,0,-1.5609,-1.5614,-1.564,-1.5639,-1.5637,-1.5649,-1.5659,-1.569,-1.5631,-1.5633,-1.5625,-1.5623,-1.5649,-1.5652,-1.566,-1.5715,-1.5716,-1.566,-1.5662,-1.5663,-1.5664,0,0,0,0,0,0,0,-1.5607,-1.5613,-1.5666,-1.5641,-1.5639,-1.5628,-1.5629,-1.5664,-1.5653,-1.5632,-1.5629,-1.5631,-1.5648,-1.5657,-1.566,-1.5716,-1.566,-1.5663,-1.5664,-1.5666,-1.5824,-1.5827,0,0,0,0,0,0,-1.5608,-1.5611,-1.5666,-1.5667,-1.5617,-1.5631,-1.5632,-1.5647,-1.5653,-1.5651,-1.5633,-1.5629,-1.5653,-1.5657,-1.5661,-1.5736,-1.5663,-1.5666,-1.5667,-1.5822,-1.5825,-1.5828,0,0,0,0,0,0,-1.5607,-1.5613,-1.5665,-1.5638,-1.5644,-1.5634,-1.5652,-1.5649,-1.5658,-1.5654,-1.5652,-1.5645,-1.5652,-1.5657,-1.5701,-1.5736,-1.5667,-1.567,-1.5819,-1.5823,-1.5826,-1.5886,0,0,0,0,0,0,-1.5605,-1.5613,-1.5637,-1.5639,-1.5645,-1.5705,-1.5654,-1.5651,-1.5663,-1.5658,-1.5664,-1.5663,-1.565,-1.5697,-1.5704,-1.5739,-1.5672,-1.5816,-1.5821,-1.5825,-1.5881,-1.5891,-1.59,0,0,0,0,0,-1.5602,-1.5654,-1.5638,-1.5645,-1.5675,-1.5707,-1.571,-1.5694,-1.5666,-1.569,-1.5687,-1.5663,-1.5731,-1.5702,-1.571,-1.5745,-1.5814,-1.5819,-1.5825,-1.5876,-1.5889,-1.59,0,0,0,0,0,0,-1.5657,-1.5653,-1.5637,-1.569,-1.5699,-1.5699,-1.5728,-1.5708,-1.5726,-1.572,-1.57,-1.5702,-1.575,-1.5752,-1.572,-1.5807,-1.5767,-1.5775,-1.5804,-1.5816,-1.5826,-1.5824,-1.5675,0,0,0,0,0,-1.5675,-1.57,-1.5696,-1.5744,-1.5749,-1.5738,-1.5751,-1.5738,-1.5747,-1.5751,-1.5751,-1.5761,-1.5784,-1.58,-1.5821,-1.588,-1.5881,-1.5909,-1.5918,-1.5926,-1.5933,-1.5964,-1.5977,-1.5846,-1.5846,-1.5845,0,0,-1.5713,-1.5714,-1.5732,-1.5755,-1.576,-1.5788,-1.5742,-1.5773,-1.5793,-1.5755,-1.5797,-1.5798,-1.5807,-1.586,-1.5882,-1.5863,-1.5969,-1.5933,-1.594,-1.5942,-1.5971,-1.5984,-1.5995,-1.5849,-1.5849,-1.5848,0,0,-1.5796,-1.58,-1.584,-1.5846,-1.5854,-1.5846,-1.5856,-1.5858,-1.5857,-1.5898,-1.587,-1.5894,-1.5935,-1.5943,-1.5953,-1.6038,-1.6016,-1.6046,-1.6096,-1.6127,-1.6137,-1.6146,-1.6177,-1.6189,-1.6052,-1.6052,-1.6053,0,-1.5843,-1.5883,-1.5863,-1.5896,-1.5907,-1.5873,-1.5913,-1.592,-1.5936,-1.5944,-1.5921,-1.5972,-1.5976,-1.6029,-1.605,-1.6059,-1.6069,-1.6045,-1.6137,-1.6146,-1.6154,-1.6184,-1.6195,-1.6056,-1.6056,-1.6055,-1.6055,0,-1.594,-1.5968,-1.5999,-1.6014,-1.6028,-1.6065,-1.6051,-1.6068,-1.6053,-1.6048,-1.6091,-1.6094,-1.6115,-1.6127,-1.6113,-1.6178,-1.6166,-1.6141,-1.6101,-1.6171,-1.6198,-1.6209,-1.6061,-1.606,-1.6059,-1.6058,0,0,-1.6059,-1.6062,-1.6074,-1.608,-1.6086,-1.6107,-1.6142,-1.6162,-1.6178,-1.6189,-1.6218,-1.6253,-1.6229,-1.624,-1.6227,-1.6254,-1.6321,-1.6225,-1.6225,-1.6243,-1.6394,-1.6413,-1.6427,-1.6307,-1.6309,-1.631,-1.6393,0,-1.6142,-1.6201,-1.6184,-1.6244,-1.627,-1.6238,-1.6268,-1.6275,-1.6271,-1.6293,-1.6288,-1.6313,-1.628,-1.6286,-1.6311,-1.6308,-1.6352,-1.6302,-1.6334,-1.6336,-1.6334,-1.6441,-1.6462,-1.654,-1.6404,-1.6405,-1.6407,0,-1.6247,-1.6261,-1.6324,-1.6325,-1.6335,-1.6363,-1.638,-1.6401,-1.6408,-1.6403,-1.6415,-1.6395,-1.643,-1.6389,-1.6437,-1.6403,-1.6415,-1.6416,-1.6418,-1.6421,-1.6376,-1.6447,-1.6564,-1.6577,-1.6423,-1.6422,-1.6421,0,-1.6329,-1.6364,-1.6405,-1.6412,-1.6414,-1.6434,-1.6437,-1.6442,-1.6455,-1.6469,-1.6478,-1.6497,-1.6507,-1.6522,-1.6509,-1.648,-1.6559,-1.6517,-1.6556,-1.6557,-1.6575,-1.6574,-1.6696,-1.6582,-1.6582,-1.6581,-1.6581,0,-1.6423,-1.6463,-1.6442,-1.6468,-1.6511,-1.6491,-1.6535,-1.6533,-1.6538,-1.6563,-1.6536,-1.656,-1.6541,-1.6563,-1.6553,-1.6594,-1.6599,-1.6596,-1.6593,-1.6599,-1.66,-1.6607,-1.6602,-1.6584,-1.6584,-1.6583,-1.6583,0,-1.6523,-1.651,-1.6554,-1.6552,-1.6552,-1.6585,-1.6583,-1.6607,-1.66,-1.6633,-1.6639,-1.6629,-1.6654,-1.6642,-1.6668,-1.6661,-1.6714,-1.6704,-1.6712,-1.6709,-1.6749,-1.6746,-1.6882,-1.6898,-1.6773,-1.6774,-1.6775,0,-1.6584,-1.6614,-1.6615,-1.663,-1.6633,-1.6657,-1.667,-1.6651,-1.6665,-1.6676,-1.6699,-1.6721,-1.6738,-1.678,-1.6775,-1.6795,-1.6785,-1.6831,-1.6788,-1.6793,-1.6786,-1.6785,-1.6788,-1.684,-1.6842,-1.6843,-1.6844,0,-1.6695,-1.6687,-1.6707,-1.6724,-1.6739,-1.6752,-1.6763,-1.6776,-1.6757,-1.6775,-1.68,-1.6813,-1.6839,-1.6862,-1.6879,-1.6882,-1.686,-1.6857,-1.6867,-1.6874,-1.6878,-1.6877,-1.6736,-1.6855,-1.6853,-1.6853,-1.6852,-1.6852,-1.6778,-1.6803,-1.6807,-1.6829,-1.6835,-1.6845,-1.6867,-1.6863,-1.6883,-1.6903,-1.689,-1.6919,-1.6926,-1.6946,-1.6951,-1.6974,-1.6956,-1.6971,-1.6975,-1.6979,-1.6984,-1.6874,-1.6977,-1.6977,-1.6977,-1.6976,-1.6976,0,-1.6888,-1.6889,-1.691,-1.6925,-1.6942,-1.6919,-1.6929,-1.6945,-1.6971,-1.6978,-1.6995,-1.7024,-1.7045,-1.7042,-1.7062,-1.7081,-1.7071,-1.7086,-1.7085,-1.7086,-1.6999,-1.6989,-1.7094,-1.7094,-1.7094,-1.7094,-1.7094,-1.7094,-1.6948,-1.6988,-1.6981,-1.7023,-1.7024,-1.7052,-1.706,-1.7069,-1.7075,-1.7107,-1.7125,-1.7122,-1.7125,-1.7144,-1.7163,-1.7162,-1.717,-1.719,-1.7185,-1.7104,-1.7092,-1.7081,-1.7071,-1.7192,-1.7192,-1.7269,-1.727,-1.7271]},{"header":{"parameterUnit":"m.s-1","parameterCategory":1,"la1":30.2991,"la2":30.254,"lo1":-89.0895,"lo2":-89.0444,"dy":0.0017,"dx":0.0017,"nx":28,"ny":28,"refTime":"2025-03-08T09:00:00:Z","depth":0,"parameterNumber":3,"parameterNumberName":"V-component_of_WINDS"},"data":[0,0,0,0,0,0,0,0,0,0,0,0,0,0,0,0,0,0,0,0,0,0,0,0,0,0,0,0,0,0,0,0,0,0,0,0,0,0,0,0,0,0,0,0,0,0,0,0,0,0,0,0,0,0,0,0,0,0,-1.958,-1.958,0,-1.9587,-1.9587,-1.9587,-1.9533,-1.9531,-1.953,-1.9528,-1.9534,-1.9536,-1.9537,0,0,0,0,0,0,0,0,0,0,0,0,0,-1.952,-1.9521,-1.958,-1.958,-1.958,-1.9587,-1.9587,-1.9587,-1.9533,-1.9531,-1.953,-1.9528,-1.9534,-1.9536,-1.9537,0,0,0,0,0,0,0,0,0,0,0,0,0,-1.9538,-1.9522,-1.958,-1.9554,-1.9552,-1.9587,-1.9587,-1.9587,-1.9534,-1.9531,-1.9529,-1.9527,-1.9533,-1.9535,-1.9538,-1.9597,0,0,-1.9545,-1.9546,0,0,0,0,0,0,0,0,-1.9537,-1.9541,-1.9558,-1.9556,-1.9554,-1.9557,-1.9568,-1.959,-1.9534,-1.9541,-1.9528,-1.9526,-1.9543,-1.9545,-1.9551,-1.9597,-1.9598,-1.9545,-1.9546,-1.9547,-1.9548,0,0,0,0,0,0,0,-1.9536,-1.954,-1.9583,-1.9558,-1.9556,-1.9542,-1.9542,-1.9572,-1.9555,-1.954,-1.9536,-1.9537,-1.9542,-1.9549,-1.9551,-1.9598,-1.9545,-1.9547,-1.9548,-1.9549,-1.9693,-1.9695,0,0,0,0,0,0,-1.9538,-1.9539,-1.9582,-1.9583,-1.954,-1.9545,-1.9545,-1.9558,-1.9554,-1.9551,-1.9539,-1.9535,-1.9546,-1.9548,-1.9551,-1.962,-1.9547,-1.955,-1.9551,-1.969,-1.9693,-1.9696,0,0,0,0,0,0,-1.9537,-1.9543,-1.9582,-1.956,-1.9564,-1.9548,-1.9563,-1.9559,-1.9566,-1.9554,-1.955,-1.955,-1.9544,-1.9547,-1.9586,-1.9619,-1.9551,-1.9553,-1.9688,-1.9691,-1.9695,-1.9759,0,0,0,0,0,0,-1.9536,-1.9543,-1.9566,-1.9561,-1.9565,-1.9618,-1.9565,-1.9561,-1.9571,-1.9565,-1.9563,-1.956,-1.9543,-1.9583,-1.9588,-1.9621,-1.9555,-1.9685,-1.9689,-1.9694,-1.9754,-1.9765,-1.9774,0,0,0,0,0,-1.9534,-1.9583,-1.9567,-1.9572,-1.9594,-1.962,-1.9622,-1.9602,-1.9573,-1.9596,-1.9588,-1.956,-1.9615,-1.9587,-1.9593,-1.9627,-1.9682,-1.9688,-1.9693,-1.975,-1.9763,-1.9773,0,0,0,0,0,0,-1.9592,-1.9582,-1.9564,-1.9613,-1.9618,-1.9611,-1.9639,-1.9616,-1.9629,-1.9623,-1.9596,-1.9596,-1.9639,-1.9637,-1.9606,-1.9684,-1.9644,-1.965,-1.9684,-1.9697,-1.9706,-1.9706,-1.9556,0,0,0,0,0,-1.961,-1.9633,-1.9623,-1.9668,-1.9671,-1.9655,-1.9665,-1.9649,-1.9653,-1.9654,-1.9649,-1.9653,-1.9671,-1.9684,-1.9699,-1.9753,-1.9752,-1.978,-1.9789,-1.9798,-1.9804,-1.9832,-1.9844,-1.9714,-1.9714,-1.9714,0,0,-1.9649,-1.9646,-1.9662,-1.9679,-1.9681,-1.9705,-1.9657,-1.9684,-1.9701,-1.9658,-1.9694,-1.9691,-1.9694,-1.974,-1.976,-1.974,-1.984,-1.9804,-1.9811,-1.9813,-1.9839,-1.9851,-1.9862,-1.9718,-1.9717,-1.9716,0,0,-1.9731,-1.9732,-1.9769,-1.9772,-1.9775,-1.9763,-1.9772,-1.9769,-1.9765,-1.9801,-1.9769,-1.9789,-1.9821,-1.9824,-1.983,-1.9914,-1.9889,-1.9919,-1.9971,-1.9999,-2.0009,-2.0018,-2.0048,-2.0059,-1.9926,-1.9926,-1.9926,0,-1.9779,-1.9814,-1.9791,-1.982,-1.9828,-1.9791,-1.9828,-1.9832,-1.984,-1.9846,-1.9823,-1.9862,-1.9861,-1.9908,-1.9929,-1.9935,-1.9944,-1.992,-2.001,-2.0018,-2.0026,-2.0055,-2.0066,-1.993,-1.9929,-1.9929,-1.9929,0,-1.9872,-1.9896,-1.9926,-1.9935,-1.9947,-1.998,-1.9962,-1.9976,-1.9959,-1.995,-1.9987,-1.9985,-2.0,-2.0009,-1.9993,-2.0054,-2.0041,-2.0014,-1.9973,-2.0043,-2.0069,-2.008,-1.9935,-1.9934,-1.9933,-1.9932,0,0,-1.9991,-1.9987,-1.9999,-2.0002,-2.0003,-2.0022,-2.0053,-2.0068,-2.0081,-2.0087,-2.0113,-2.0141,-2.0116,-2.0122,-2.0105,-2.013,-2.0197,-2.01,-2.0099,-2.0118,-2.0264,-2.0285,-2.0298,-2.018,-2.0182,-2.0183,-2.0264,0,-2.0072,-2.0126,-2.0106,-2.0161,-2.0183,-2.0148,-2.0175,-2.0178,-2.0171,-2.0189,-2.018,-2.02,-2.0165,-2.0169,-2.0192,-2.0184,-2.0226,-2.0177,-2.0203,-2.0205,-2.0204,-2.0312,-2.0334,-2.041,-2.0274,-2.0276,-2.0277,0,-2.0173,-2.0185,-2.0242,-2.0239,-2.0248,-2.0273,-2.0285,-2.0302,-2.0305,-2.0297,-2.0305,-2.0283,-2.0313,-2.0271,-2.0312,-2.028,-2.0289,-2.0287,-2.029,-2.0292,-2.0246,-2.0317,-2.0434,-2.0446,-2.0293,-2.0292,-2.0291,0,-2.0255,-2.0284,-2.0323,-2.0327,-2.0324,-2.0343,-2.0342,-2.0343,-2.0353,-2.0363,-2.0369,-2.0383,-2.0391,-2.0402,-2.0383,-2.0355,-2.0427,-2.0384,-2.0422,-2.0423,-2.044,-2.0439,-2.056,-2.0445,-2.0445,-2.0445,-2.0444,0,-2.0347,-2.0384,-2.036,-2.0383,-2.0423,-2.04,-2.044,-2.0435,-2.0436,-2.0458,-2.0428,-2.0449,-2.0423,-2.0442,-2.0428,-2.0464,-2.0468,-2.0463,-2.0459,-2.0466,-2.0467,-2.0472,-2.0466,-2.0448,-2.0447,-2.0446,-2.0446,0,-2.0446,-2.0431,-2.047,-2.0464,-2.0464,-2.0494,-2.0488,-2.051,-2.05,-2.0528,-2.0533,-2.0518,-2.0538,-2.0521,-2.0541,-2.0531,-2.058,-2.0568,-2.0579,-2.0576,-2.0615,-2.0612,-2.0745,-2.0761,-2.0635,-2.0636,-2.0637,0,-2.0506,-2.0534,-2.0531,-2.0543,-2.0545,-2.0566,-2.0576,-2.0554,-2.0566,-2.0571,-2.0592,-2.061,-2.0623,-2.0657,-2.0647,-2.0662,-2.0651,-2.0696,-2.0653,-2.0659,-2.0652,-2.0651,-2.0653,-2.0705,-2.0707,-2.0708,-2.0709,0,-2.0615,-2.0606,-2.0622,-2.0636,-2.065,-2.0659,-2.0666,-2.0678,-2.0656,-2.0671,-2.0691,-2.0701,-2.0721,-2.074,-2.0751,-2.075,-2.0726,-2.0722,-2.0732,-2.074,-2.0746,-2.0744,-2.0604,-2.072,-2.0718,-2.0718,-2.0717,-2.0717,-2.0696,-2.0719,-2.0721,-2.074,-2.0743,-2.075,-2.077,-2.0763,-2.078,-2.0795,-2.0781,-2.0806,-2.0807,-2.0821,-2.0823,-2.0842,-2.0823,-2.0837,-2.084,-2.0844,-2.085,-2.0742,-2.0844,-2.0843,-2.0843,-2.0843,-2.0842,0,-2.0804,-2.0803,-2.0821,-2.0832,-2.0847,-2.0823,-2.083,-2.0844,-2.0866,-2.087,-2.0884,-2.0908,-2.0925,-2.0917,-2.0932,-2.0949,-2.0938,-2.0954,-2.0952,-2.0953,-2.0866,-2.0856,-2.0962,-2.0962,-2.0962,-2.0962,-2.0962,-2.0962,-2.0861,-2.0899,-2.089,-2.0929,-2.0928,-2.0952,-2.0958,-2.0965,-2.0968,-2.0996,-2.1011,-2.1005,-2.1004,-2.1019,-2.1034,-2.1031,-2.1038,-2.1058,-2.1051,-2.097,-2.0959,-2.0947,-2.0938,-2.1059,-2.1059,-2.1136,-2.1136,-2.1137]}]]